This demonstration page uses our WeatherBlox Daily Observations layout. Learn more.

Left ArrowRight Arrow

38.20091, -84.87328

Hourly Observations for February 7, 2020

Temp ( °F °C ) Dew Point ( °F °C ) Humidity (%) Winds ( mph kmh ) Pressure ( in mb ) Visibility ( mi km ) Precip ( " mm )
12:08 am 00:08 Cloudy 32 0 29 -1.7 88 88 NW 6 9 29.46 998 9 14 0.00 0.00
12:20 am 00:20 Cloudy with Light Snow 32 0 28 -2.2 85 85 NW 9 15 29.46 998 4 6 0.00 0.00
12:33 am 00:33 Cloudy with Light Snow 32 0 29 -1.7 88 88 NW 8 13 29.45 997 2 3 0.00 0.00
12:53 am 00:53 Cloudy with Mist and Fog 31 -0.6 28 -2.2 89 89 NW 9 15 29.41 996 3 5 0.00 0.00
1:16 am 01:16 Cloudy with Light Snow 31 -0.6 29 -1.7 92 92 NW 10 17 29.43 997 3 4 0.00 0.00
1:23 am 01:23 Cloudy with Light Snow 31 -0.6 28 -2.2 89 89 NW 6 9 29.43 997 3 5 0.00 0.00
1:53 am 01:53 Cloudy with Mist and Fog 31 -0.6 28 -2.2 89 89 WNW 8 13 29.42 996 4 6 0.00 0.00
2:14 am 02:14 Cloudy with Light Snow 31 -0.6 28 -2.2 89 89 WNW 10 17 29.45 997 3 4 0.00 0.00
2:31 am 02:31 Cloudy with Light Snow 30 -1.1 26 -3.3 85 85 NW 8 13 29.46 998 2 3 0.00 0.00
2:48 am 02:48 Cloudy with Light Snow 30 -1 27 -3 86 86 NW 7 11 29.47 998 2 2 0.00 0.00
2:53 am 02:53 Cloudy with Light Snow 30 -1.1 27 -2.8 88 88 NW 6 9 29.44 997 2 2 0.00 0.00
3:01 am 03:01 Cloudy with Light Snow 30 -1.1 27 -2.8 88 88 NW 6 9 29.47 998 3 5 0.00 0.00
3:04 am 03:04 Cloudy with Light Snow 30 -1.1 27 -2.8 88 88 NW 6 9 29.47 998 3 5 0.00 0.00
3:07 am 03:07 Cloudy with Light Snow 30 -1.1 27 -2.8 88 88 WNW 6 9 29.47 998 3 4 0.00 0.00
3:25 am 03:25 Cloudy with Light Snow 30 -1.1 26 -3.3 85 85 WNW 7 11 29.48 998 3 5 0.00 0.00
3:38 am 03:38 Cloudy 30 -1.1 27 -2.8 88 88 WNW 8 13 29.48 998 8 13 0.00 0.00
3:48 am 03:48 Cloudy 30 -1 27 -3 86 86 WNW 8 13 29.49 999 8 13 0.00 0.00
3:53 am 03:53 Cloudy 30 -1.1 26 -3.3 85 85 WNW 6 9 29.47 998 8 13 0.00 0.00
4:05 am 04:05 Cloudy 30 -1.1 26 -3.3 85 85 W 7 11 29.49 999 8 13 0.00 0.00
4:28 am 04:28 Cloudy 30 -1.1 26 -3.3 85 85 W 7 11 29.50 999 10 16 0.00 0.00
4:53 am 04:53 Cloudy 29 -1.7 25 -3.9 85 85 WNW 9 15 29.49 999 10 16 0.00 0.00
5:00 am 05:00 Cloudy 29 -1.7 25 -3.9 85 85 WNW 9 15 29.53 1000 10 16 0.00 0.00
5:24 am 05:24 Cloudy with Light Snow 29 -1.7 25 -3.9 85 85 WNW 8 13 29.54 1000 3 5 0.00 0.00
5:39 am 05:39 Cloudy with Light Snow 29 -1.7 25 -3.9 85 85 WNW 9 15 29.55 1001 5 8 0.00 0.00
5:53 am 05:53 Mostly Cloudy with Light Snow 29 -1.7 25 -3.9 85 85 WNW 9 15 29.52 1000 3 5 0.00 0.00
6:03 am 06:03 Cloudy with Light Snow 29 -1.7 25 -3.9 85 85 W 8 13 29.56 1001 2 3 0.00 0.00
6:27 am 06:27 Cloudy with Light Snow 29 -1.7 25 -3.9 85 85 W 9 15 29.59 1002 4 6 0.00 0.00
6:46 am 06:46 Cloudy with Light Snow 29 -1.7 25 -3.9 85 85 W 7 11 29.60 1002 3 4 0.00 0.00
6:53 am 06:53 Cloudy with Light Snow 29 -1.7 25 -3.9 85 85 W 6 9 29.57 1001 2 3 0.00 0.00
7:00 am 07:00 Cloudy with Light Snow 29 -1.7 25 -3.9 85 85 W 9 15 29.61 1003 1 2 0.00 0.00
7:18 am 07:18 Cloudy with Light Snow 29 -1.7 25 -3.9 85 85 W 8 13 29.62 1003 3 4 0.00 0.00
7:44 am 07:44 Cloudy with Light Snow 28 -2.2 25 -3.9 88 88 WNW 9 15 29.64 1004 1 2 0.00 0.00
7:53 am 07:53 Cloudy with Light Snow 28 -2.2 25 -3.9 88 88 W 10 17 29.61 1003 3 4 0.00 0.00
8:02 am 08:02 Cloudy with Light Snow 28 -2.2 24 -4.4 85 85 WNW 9 15 29.65 1004 4 6 0.00 0.00
8:11 am 08:11 Cloudy with Light Snow 28 -2.2 24 -4.4 85 85 W 9 15 29.66 1004 2 3 0.00 0.00
8:31 am 08:31 Cloudy with Light Snow 28 -2.2 25 -3.9 88 88 VRB 7 11 29.67 1005 3 5 0.00 0.00
8:49 am 08:49 Cloudy with Light Snow 28 -2 25 -4 86 86 W 7 11 29.68 1005 3 4 0.00 0.00
8:50 am 08:50 Cloudy with Light Snow 28 -2 25 -4 86 86 WNW 8 13 29.69 1005 3 5 0.00 0.00
8:53 am 08:53 Cloudy with Light Snow 29 -1.7 24 -4.4 82 82 W 7 11 29.66 1004 3 5 0.00 0.00
9:53 am 09:53 Cloudy 29 -1.7 24 -4.4 82 82 W 10 17 29.70 1006 9 14 0.00 0.00
11:53 am 11:53 Cloudy 31 -0.6 23 -5 72 72 W 7 11 29.78 1008 10 16 0.00 0.00
12:09 pm 12:09 Cloudy 31 -0.6 23 -5 72 72 W 9 15 29.80 1009 10 16 0.00 0.00
12:16 pm 12:16 Cloudy 31 -0.6 22 -5.6 69 69 W 10 17 29.80 1009 10 16 0.00 0.00
12:53 pm 12:53 Cloudy 32 0 23 -5 69 69 W 10 17 29.79 1009 10 16 0.00 0.00
1:08 pm 13:08 Cloudy 33 0.6 24 -4.4 70 70 W 9 15 29.82 1010 10 16 0.00 0.00
1:45 pm 13:45 Cloudy 33 0.6 22 -5.6 64 64 WNW 12 19 29.83 1010 10 16 0.00 0.00
1:53 pm 13:53 Cloudy 32 0 22 -5.6 66 66 VRB 6 9 29.81 1010 10 16 0.00 0.00
2:02 pm 14:02 Cloudy 32 0 23 -5 69 69 W 9 15 29.84 1011 10 16 0.00 0.00
2:14 pm 14:14 Cloudy 33 0.6 23 -5 66 66 VRB 7 11 29.85 1011 10 16 0.00 0.00
2:53 pm 14:53 Cloudy 33 0.6 23 -5 66 66 WNW 7 11 29.85 1011 10 16 0.00 0.00
3:53 pm 15:53 Cloudy 33 0.6 24 -4.4 70 70 W 6 9 29.88 1012 10 16 0.00 0.00
4:53 pm 16:53 Cloudy 33 0.6 23 -5 66 66 VRB 5 7 29.92 1013 10 16 0.00 0.00
5:04 pm 17:04 Cloudy 33 0.6 23 -5 66 66 WSW 8 13 29.94 1014 10 16 0.00 0.00
5:15 pm 17:15 Cloudy with Light Snow 33 0.6 23 -5 66 66 WSW 6 9 29.95 1014 9 14 0.00 0.00
5:53 pm 17:53 Cloudy 33 0.6 24 -4.4 70 70 WSW 6 9 29.94 1014 10 16 0.00 0.00
6:53 pm 18:53 Mostly Cloudy 30 -1.1 24 -4.4 79 79 SW 6 9 29.97 1015 10 16 0.00 0.00
7:53 pm 19:53 Clear 30 -1.1 24 -4.4 79 79 SSW 8 13 30.00 1016 10 16 0.00 0.00
8:53 pm 20:53 Clear 29 -1.7 24 -4.4 82 82 SW 10 17 30.03 1017 10 16 0.00 0.00
9:53 pm 21:53 Clear 28 -2.2 23 -5 81 81 SW 8 13 30.05 1018 10 16 0.00 0.00
10:53 pm 22:53 Clear 28 -2.2 24 -4.4 85 85 SSW 7 11 30.08 1019 10 16 0.00 0.00
11:53 pm 23:53 Mostly Clear 29 -1.7 25 -3.9 85 85 SSW 7 11 30.09 1019 10 16 0.00 0.00

Powered by AerisWeather